Regional Weather Roundup
Issued by NWS

Home | Current Version | Previous Version | Graphics & Text | Print | Product List | Glossary On
Versions: 1 2 3 4 5 6 7 8 9 10 11 12 13 14 15 16 17 18 19 20 21 22 23 24 25 26 27 28 29 30 31 32 33 34 35 36 37 38 39 40 41 42 43 44 45 46 47 48 49 50
253
ASUS45 KABQ 170010
RWRNM
NEW MEXICO REGIONAL WEATHER ROUNDUP
NATIONAL WEATHER SERVICE ALBUQUERQUE NM
600 PM MDT WED AUG 16 2017

NOTE: "FAIR" MEANS FEW OR NO CLOUDS BELOW 12,000 FEET AGL WITH NO
       SIGNIFICANT WEATHER OR OBSTRUCTIONS TO VISION.

      THIS PRODUCT IS RELEASED AS TWO VERSIONS.  ONE VERSION NEAR
      THE TOP OF THE HOUR CONTAINING PRELIMINARY DATA FROM ALBUQUERQUE
      AND OTHER STATIONS.  A FINAL VERSION WITH ADDITIONAL DATA IS
      ISSUED ABOUT 10 MINUTES AFTER THE HOUR.

NMZ501-503-504-510>518-170100-
NORTHWEST PLATEAU/NORTHCENTRAL MOUNTAINS

CITY           SKY/WX    TMP DP  RH WIND       PRES   REMARKS
FARMINGTON     FAIR      85  24  11 NW8       30.08F
6HR MIN TEMP:  77; 6HR MAX TEMP:  86;

LOS ALAMOS     PTSUNNY   79  28  15 W8        30.22R
SANTA FE       FAIR      83  28  13 W17G25    30.14S
6HR MIN TEMP:  75; 6HR MAX TEMP:  84;

TAOS           PTSUNNY   79  34  19 W15G22    30.21F
ANGEL FIRE     FAIR      68  35  29 SW6       30.31S

$$
NMZ402-403-502-505>509-170100-
WESTCENTRAL MOUNTAINS/SOUTHWEST MOUNTAINS

CITY           SKY/WX    TMP DP  RH WIND       PRES   REMARKS
GALLUP         FAIR      81  29  15 SW14      30.19S
6HR MIN TEMP:  76; 6HR MAX TEMP:  83;

GRANTS         FAIR      82  26  12 W10       30.20S
SILVER CITY    FAIR      83  33  16 SW8       30.14S

$$
NMZ407-409-411-412-170100-
SOUTHERN DESERTS

CITY           SKY/WX    TMP DP  RH WIND       PRES   REMARKS
DEMING         FAIR      90  40  17 W10       30.05F
6HR MIN TEMP:  84; 6HR MAX TEMP:  91;

LAS CRUCES     FAIR      90  39  16 W8        30.07S
HOLLOMAN AFB   FAIR      93  42  16 CALM      30.03F
ALAMOGORDO     FAIR      90  39  17 CALM      30.04S
T OR C         FAIR      90  39  16 S8        30.05F
6HR MIN TEMP:  84; 6HR MAX TEMP:  91;


$$
NMZ519>523-170100-
CENTRAL VALLEYS/CENTRAL HIGHLANDS

CITY           SKY/WX    TMP DP  RH WIND       PRES   REMARKS
ALBUQUERQUE    FAIR      87  31  13 SW13      30.08F
6HR MIN TEMP:  79; 6HR MAX TEMP:  89;

DOUBLE EAGLE   MOSUNNY   88  36  15 W7        30.12F
MORIARTY ARPT  FAIR      83  33  16 W3        30.17S
6HR MIN TEMP:  80; 6HR MAX TEMP:  86;

CLINES CORNERS FAIR      77  32  19 W9G17     30.23S
6HR MIN TEMP:  74; 6HR MAX TEMP:  80;

BELEN          FAIR      87  30  13 W9G17     30.08S
6HR MIN TEMP:  81; 6HR MAX TEMP:  89;

SOCORRO        FAIR      88  35  15 SE10      30.06S
6HR MIN TEMP:  84; 6HR MAX TEMP:  91;


$$
NMZ524>526-539-540-170100-
SOUTHCENTRAL MOUNTAINS

CITY           SKY/WX    TMP DP  RH WIND       PRES   REMARKS
RUIDOSO        FAIR      79  34  19 CALM      30.24S

$$
NMZ527>531-170100-
NORTHEAST HIGHLANDS/NORTHEAST PLAINS

CITY           SKY/WX    TMP DP  RH WIND       PRES   REMARKS
LAS VEGAS      FAIR      78  37  22 W3        30.19R
6HR MIN TEMP:  73; 6HR MAX TEMP:  79;

RATON          FAIR      78  43  28 S8        30.14S
6HR MIN TEMP:  71; 6HR MAX TEMP:  79;

CLAYTON        FAIR      79  50  36 SE8       30.09F
6HR MIN TEMP:  75; 6HR MAX TEMP:  81;


$$
NMZ532>537-170100-
EASTCENTRAL PLAINS

CITY           SKY/WX    TMP DP  RH WIND       PRES   REMARKS
SANTA ROSA     FAIR      86  42  21 CALM      30.03S
TUCUMCARI      FAIR      88  49  25 E12       30.00F
6HR MIN TEMP:  82; 6HR MAX TEMP:  91;

CANNON AFB     FAIR      84  52  32 NE6       30.05F
6HR MIN TEMP:  79; 6HR MAX TEMP:  86;

CLOVIS AIRPORT NOT AVBL

$$
NMZ028-029-538-170100-
SOUTHEAST PLAINS

CITY           SKY/WX    TMP DP  RH WIND       PRES   REMARKS
ROSWELL        FAIR      95  45  17 S10       29.96S
6HR MIN TEMP:  92; 6HR MAX TEMP:  97;

ARTESIA        FAIR      93  46  20 SE7       29.97S
CARLSBAD       FAIR      93  49  22 E5        29.94F
6HR MIN TEMP:  88; 6HR MAX TEMP:  95;

HOBBS          SUNNY     91  46  21 E6        29.99S


$$




USA.gov is the U.S. government's official web portal to all federal, state and local government web resources and services.